Flag for Germany Weather past 2 weeks in Aurich, Lower Saxony, Germany

Now
50 °F

Passing clouds.


Feels Like: 43 °F
Forecast: 47 / 56 °F
Wind: 26 mph from Northwest

Location: Wittmundhaven

Current Time: Oct 22, 2014 at 5:16:12 AM

Latest Report: Oct 22, 2014 at 4:20 AM


Visibility: N/A

Pressure: 29.65 "Hg

Humidity: 76%

Dew point: 43 °F

Location of AurichLocation

Historic Weather in Aurich — Graph

°F

Aurich temperature yesterday

Maximum temperature yesterday: 54 °F (at 12:20 AM)
Minimum temperature yesterday: 48 °F (at 11:20 PM)
Average temperature yesterday: 53 °F

Past Weeks' High & Low Weather Summary

 TemperatureHumidityPressure
High68 °F (Oct 19, 12:20 PM)100% (Oct 11, 3:20 AM)30.07 "Hg (Oct 11, 3:20 AM)
Low45 °F (Oct 11, 7:20 AM)59% (Oct 10, 3:20 PM)29.33 "Hg (Oct 21, 4:20 PM)
Average56 °F88%29.75 "Hg
* Reported Oct 7 3:20 AM — Oct 22 3:20 AM, Aurich, Weather by CustomWeather, © 2014

Note: Actual official high and low records may vary slightly from our data, if they occured in-between our weather recording intervals... More about our weather records

Advertising

Aurich weather history for previous 24 hours

 ConditionsComfort  
Time TempWeatherWind HumidityBarometerVisibility
3:20 AM
Oct 22
52 °FPassing clouds.28 mph72%29.62 "HgN/A
2:20 AM52 °FPartly cloudy.26 mph77%29.59 "HgN/A
1:20 AM50 °FSprinkles. Partly cloudy.26 mph88%29.56 "HgN/A
12:20 AM48 °FPassing clouds.9 mph87%29.50 "HgN/A
11:20 PM
Oct 21
48 °FPartly cloudy.12 mph87%29.50 "HgN/A
10:20 PM50 °FPartly cloudy.21 mph82%29.47 "HgN/A
9:20 PM50 °FSprinkles. Partly cloudy.17 mph88%29.45 "HgN/A
8:20 PM52 °FPartly cloudy.15 mph77%29.42 "HgN/A
7:20 PM52 °FPassing clouds.14 mph82%29.39 "HgN/A
6:20 PM52 °FBroken clouds.8 mph88%29.36 "Hg6 mi
5:20 PM52 °FLight rain. Broken clouds.15 mph94%29.36 "Hg4 mi
4:47 PM54 °FLight rain. Fog.16 mph94%29.33 "Hg2 mi
4:20 PM54 °FDrizzle. Partly sunny.17 mph94%29.33 "Hg4 mi
3:20 PM54 °FPartly sunny.18 mph94%29.36 "Hg4 mi
2:46 PM54 °FLight rain. Partly sunny.18 mph94%29.39 "Hg4 mi
2:20 PM54 °FLight rain. Fog.20 mph94%29.39 "Hg3 mi
2:01 PM54 °FRain. Fog.20 mph94%29.42 "Hg2 mi
1:20 PM54 °FLight rain. Fog.20 mph94%29.45 "Hg3 mi
12:20 PM54 °FLight rain. Fog.15 mph94%29.50 "Hg3 mi
11:20 AM54 °FLight rain. Fog.15 mph94%29.53 "Hg3 mi
10:20 AM54 °FPartly sunny.17 mph94%29.59 "Hg6 mi
9:20 AM54 °FPartly sunny.14 mph94%29.59 "Hg5 mi
8:20 AM54 °FPassing clouds.12 mph94%29.62 "HgN/A
7:20 AM54 °FPassing clouds.10 mph94%29.65 "HgN/A
6:20 AM54 °FLight rain. Passing clouds.12 mph94%29.68 "HgN/A
5:20 AM54 °FLight rain. Partly cloudy.10 mph94%29.71 "HgN/A
Weather by CustomWeather, © 2014

See weather overviewHow to use our weather pages